Location: Killam
(52.7910°N, 111.8608°W)
Time: 20:29:43
(UTC+00:00)

A-11 Canister half - Pass Details

Date: 22 February 2026
Orbit: 1525 x 1683 km, 47.3° (Epoch: 5 March)

Event Time Altitude Azimuth Distance (km) Brightness Sun altitude
Rises 06:04:46 0° 285° (WNW) 4,679 12.0 -43.2°
Reaches altitude 10° 06:08:56 10° 269° (W) 3,696 11.2 -43.5°
Enters shadow 06:12:09 17° 249° (WSW) 3,197 10.7 -43.8°
Maximum altitude 06:14:47 19° 229° (SW) 3,062 - -44.0°
Drops below altitude 10° 06:20:42 10° 189° (S) 3,727 - -44.4°
Sets 06:24:57 0° 172° (S) 4,731 - -44.7°
